SCP
0 0 -0 -0 -0 0 0 0 0 0 -0 -0 -0 -0 -0 0 -0 -0 -0 -0 -0 -0 -0 -0 -0 -0 0 0 0 0 0 0 0 0 0 0 0 0 0 0 0 0 0
0 0 0 -0 0 0 0 -0 -0 -0 0 -0 -0 -0 -0 -0 -0 -0 -0 -0 -0 -0 -0 -0 -0 0 0 0 0 0 0 0 0 -0 0 0 -0 0 0 0 0 0 0
0 0 0 0 0 0 -0 -0 -0 0 0 -0 -0 -0 -0 -0 -0 -0 -0 -0 -0 -0 -0 0 0 0 0 0 0 0 0 0 0 0 0 -0 -0 0 0 0 0 0 0
0 0 0 0 0 -0 -0 -0 -0 -0 -0 -0 -0 -0 -0 -0 -0 -0 -0 -0 -0 -0 0 0 0 0 0 0 0 0 0 0 0 0 0 -0 -0 -0 0 0 0 0 0
0 0 0 0 0 -0 -0 -0 -0 -0 -0 -0 -0 -0 -0 -0 -0 -0 -0 -0 0 0 0 0 0 0 0 0 0 0 0 0 0 0 0 0 0 -0 0 0 0 0 0
0 0 0 0 0 -0 -0 -0 -0 -0 -0 -0 -0 -0 -0 -0 -0 -0 0 0 0 0 0 0 0 0 0 0 0 0 0 0 0 0 0 0 0 0 0 0 0 0 0
0 0 0 0 0 0 -0 -0 -0 -0 -0 -0 -0 -0 -0 -0 -0 0 0 0 0 0 0 0 0 0 0 0 0 0 0 0 0 0 0 0 0 0 0 0 0 0 0
0 0 0 0 0 0 -0 -0 -0 -0 -0 -0 -0 -0 -0 -0 0 0 0 0 0 0 0 0 0 0 0 0 0 0 0 0 0 0 0 0 0 0 0 0 0 0 0
0 0 0 0 0 0 0 0 -0 -0 -0 -0 -0 -0 -0 0 0 0 0 0 0 0 0 0 0 0 0 0 0 0 0 0 0 0 0 0 0 0 0 0 0 0 0
0 0 0 0 0 0 0 0 0 0 -0 -0 -0 0 0 0 0 0 0 0 0 0 0 0 0 0 0 0 0 0 0 0 0 0 0 0 0 0 0 0 0 0 0
0 0 0 0 0 0 0 0 0 0 0 0 0 0 0 -0 -0 0 0 0 0 0 0 0 0 0 0 0 0 0 0 0 0 0 0 0 0 0 0 0 0 0 0
0 0 0 0 0 0 0 0 0 0 0 -0 -0 -0 -0 -0 -0 0 -0 0 0 0 0 0 0 0 0 0 0 0 0 0 0 0 0 0 0 0 0 0 0 0 0
0 0 0 0 0 0 0 0 0 -0 -0 -0 -0 -0 -0 -0 -0 0 -0 -0 0 0 0 0 0 0 0 0 0 0 0 0 0 0 0 0 0 0 0 0 0 0 0
0 0 0 0 0 0 0 0 -0 -0 -0 -0 -0 -0 -0 -0 -0 0 0 0 0 0 0 0 0 0 0 0 0 0 0 0 0 0 0 0 0 0 0 0 0 0 0
0 0 0 0 0 0 0 0 0 0 0 0 -0 -0 -0 -0 0 0 0 0 0 0 0 0 0 0 0 0 0 0 0 0 0 0 0 0 0 0 0 0 0 0 0
0 0 0 0 0 0 0 0 0 0 0 -0 -0 0 0 0 0 0 0 0 0 0 0 0 0 0 0 0 0 0 0 0 0 0 0 0 0 0 0 0 0 0 0
0 0 0 0 0 0 0 0 0 0 0 0 0 0 0 0 0 0 0 0 0 0 0 0 0 0 0 0 0 0 0 0 0 0 0 0 0 0 0 0 0 0 0
0 0 0 0 0 0 0 0 0 0 0 0 0 0 0 0 0 0 0 0 0 0 0 0 0 0 0 0 0 0 0 0 0 0 0 0 0 0 0 0 0 0 0
0 0 0 0 0 0 0 0 0 0 0 0 0 0 0 0 0 0 0 0 0 0 0 0 0 0 0 0 0 0 0 0 0 0 0 0 0 0 0 0 0 0 0
0 0 0 0 0 0 0 0 0 0 0 0 0 0 0 0 0 0 0 0 0 0 0 0 0 0 0 0 0 0 0 0 0 0 0 0 0 0 0 0 0 0 0
0 0 0 0 0 0 0 0 0 0 0 0 0 0 0 0 0 0 0 0 0 0 0 0 0 0 0 0 0 0 0 0 0 0 0 0 0 0 0 0 0 0 0
0 0 0 0 0 0 0 0 0 0 0 0 0 0 0 0 0 0 0 0 0 0 0 0 0 0 0 0 0 0 0 0 0 0 0 0 0 0 0 0 0 0 0
0 0 0 0 0 0 0 0 0 0 0 0 0 0 0 0 0 0 0 0 0 0 0 0 0 0 0 0 0 0 0 0 0 0 0 0 0 0 0 0 0 0 0
0 0 0 0 0 0 0 0 0 0 0 0 0 0 0 0 0 0 0 0 0 0 0 0 0 0 0 0 0 0 0 0 0 0 0 0 0 0 0 0 0 0 0
0 0 0 0 0 0 0 0 0 0 0 0 0 0 0 0 0 0 0 0 0 0 0 0 0 0 0 0 0 0 0 0 0 0 0 0 0 0 0 0 0 0 0
0 0 0 0 0 0 0 0 0 0 0 0 0 0 0 0 0 0 0 0 0 0 0 0 0 0 0 0 0 0 0 0 0 0 0 0 0 0 0 0 0 0 0
Wind_Speed_500mb
33 38 39 37 39 40 39 38 36 32 25 19 18 21 27 36 39 39 42 39 39 39 38 38 36 35 34 33 34 35 37 39 40 38 39 41 36 33 32 31 31 31 31
47 43 42 38 40 33 31 29 25 21 18 17 22 29 33 35 36 37 41 38 37 36 35 35 34 34 33 32 33 35 37 36 36 33 36 30 29 27 28 28 30 29 27
50 47 42 38 35 30 26 22 20 20 21 26 31 36 40 41 42 36 32 34 34 35 32 35 33 31 31 31 34 37 37 35 37 32 22 18 21 29 24 25 27 26 24
53 47 44 39 33 27 22 21 22 25 28 32 37 33 33 38 31 24 26 29 29 29 30 28 29 30 30 31 34 36 34 33 29 28 25 19 14 25 23 24 25 25 25
57 48 43 37 31 25 21 25 29 30 31 33 34 37 36 27 22 21 22 23 24 25 23 27 24 27 31 32 32 34 34 29 26 24 24 28 19 21 22 22 22 22 24
56 47 41 35 30 25 25 29 29 32 34 34 34 31 29 24 21 20 20 20 21 22 23 25 26 30 34 36 36 31 29 24 21 19 21 30 29 28 22 20 21 24 25
51 46 38 36 31 28 28 30 31 33 34 33 31 28 25 22 20 19 19 20 23 25 26 27 28 30 33 33 29 28 24 17 16 20 25 32 34 31 30 27 24 25 22
45 45 41 36 30 29 30 29 31 31 31 30 27 25 22 21 19 20 23 25 26 26 25 25 26 26 26 26 22 24 22 20 17 23 29 36 35 35 30 28 28 24 18
43 46 43 37 32 30 31 31 30 29 27 26 24 22 20 20 22 23 25 25 25 25 24 23 21 20 17 18 18 21 16 15 17 21 26 34 34 32 30 28 25 18 20
37 44 44 39 34 35 34 29 30 28 26 23 21 21 23 26 25 23 23 23 23 23 24 22 17 15 14 15 16 13 14 15 17 17 26 32 29 28 27 26 25 23 28
42 42 42 39 38 38 35 31 28 25 22 21 20 22 25 26 26 24 24 24 24 24 25 21 18 14 14 8 15 14 10 11 12 14 24 26 31 36 30 25 23 23 22
53 47 44 41 42 40 36 32 28 25 22 22 23 24 24 23 22 24 22 21 23 18 18 15 14 13 13 8 9 5 8 7 7 7 17 19 21 27 29 28 25 21 20
55 49 46 42 40 43 40 34 30 26 24 24 26 25 24 19 21 15 11 15 13 11 11 6 6 6 10 5 8 8 9 6 8 12 15 17 19 31 25 27 25 22 25
59 53 44 43 40 36 35 34 31 28 27 27 27 27 25 20 18 12 2 2 0 4 6 5 4 5 7 1 7 8 6 9 10 12 13 15 19 31 31 28 22 21 19
64 58 50 49 42 42 37 35 31 29 27 27 30 31 24 19 16 12 7 1 6 4 5 8 9 4 6 10 13 7 6 10 11 11 12 12 15 17 19 25 24 23 23
67 63 56 55 51 43 39 35 31 30 32 32 33 28 24 18 14 9 4 8 11 4 4 5 3 5 3 10 12 9 8 10 9 10 12 11 14 19 17 16 20 24 20
64 67 60 58 59 49 42 37 32 32 36 34 32 29 25 17 15 9 1 5 5 5 8 9 7 11 11 10 11 9 8 7 8 11 11 11 16 16 17 19 20 23 20
64 66 61 59 58 51 46 42 37 38 37 36 31 26 22 16 9 2 0 2 3 9 10 10 10 15 10 11 10 9 7 8 6 7 10 11 14 18 21 23 23 21 20
67 65 65 63 60 53 48 42 40 44 41 39 35 29 23 19 14 8 4 4 5 8 10 9 13 16 13 9 7 8 6 7 8 6 6 10 14 20 22 19 19 19 17
68 65 64 65 61 56 52 44 45 45 42 43 35 30 25 22 17 12 9 10 8 9 12 15 8 17 14 10 9 4 4 3 7 6 4 11 17 20 21 20 18 18 18
69 70 69 69 67 64 61 57 56 55 54 47 37 30 25 21 15 16 13 13 10 11 14 16 11 11 16 13 10 10 6 2 2 7 5 9 16 20 22 21 22 22 19
76 75 75 72 71 73 67 63 59 56 55 43 39 35 30 26 22 17 16 14 15 16 18 18 16 18 17 16 12 10 7 8 9 6 6 9 14 19 22 22 23 24 24
83 82 81 77 75 76 72 66 61 59 55 52 50 44 37 33 27 22 20 18 18 19 20 20 19 18 16 20 22 12 9 10 13 9 8 10 13 20 21 22 24 25 24
91 86 80 77 77 76 75 74 73 70 68 59 51 44 43 38 32 27 25 22 21 22 24 24 22 21 19 22 27 30 20 12 8 6 8 13 14 20 23 24 25 27 24
91 90 86 82 77 78 78 79 73 73 64 53 51 50 48 44 39 32 29 27 26 26 27 25 24 25 23 24 28 27 21 18 15 13 10 11 15 18 22 26 25 24 27
94 92 90 87 80 79 80 80 74 72 66 62 58 56 52 46 38 36 34 33 32 30 29 26 25 25 24 26 26 22 17 13 10 10 9 11 12 15 20 22 25 25 26
Wind_Direction_500mb
163 153 145 137 131 119 117 115 116 118 114 104 84 79 88 89 93 90 83 75 73 73 71 70 70 70 70 69 69 69 71 67 61 58 55 48 39 51 53 49 45 45 37
156 150 148 148 139 130 123 121 120 119 111 97 89 90 90 90 89 85 78 70 72 72 71 69 67 66 67 68 69 72 77 73 63 52 53 47 35 41 47 44 42 41 37
156 148 149 144 140 134 128 126 127 124 116 104 97 93 94 87 81 83 68 67 71 70 66 65 63 60 64 69 73 76 74 64 59 66 53 34 33 41 44 42 40 38 38
159 151 147 143 141 135 132 125 122 119 118 118 111 103 91 86 93 86 69 68 70 71 68 68 63 58 62 74 83 85 74 65 56 45 43 39 36 33 35 35 33 35 40
160 152 151 149 146 143 137 125 120 118 118 120 117 108 107 114 98 84 75 72 70 72 71 72 69 59 69 77 91 86 74 67 62 52 31 37 35 30 23 24 29 37 44
161 155 152 152 146 144 134 124 119 119 115 115 117 114 117 108 95 84 76 72 70 69 67 71 73 73 75 83 96 99 89 83 63 48 40 38 43 34 34 38 42 49 75
158 163 158 153 149 144 136 128 123 121 119 116 113 111 108 101 91 81 78 77 73 72 74 77 78 77 81 87 99 101 91 80 70 53 46 42 44 41 43 47 55 83 84
160 164 161 156 152 149 143 135 130 128 124 117 112 109 105 99 94 91 84 78 76 75 74 73 76 79 84 97 97 89 77 71 64 52 49 50 41 45 51 61 77 82 68
176 170 165 162 159 154 148 143 140 134 130 123 116 112 107 104 101 91 83 77 73 70 67 66 68 74 78 83 89 78 93 68 46 44 44 41 33 44 58 69 77 72 45
184 181 174 170 166 161 156 148 142 141 134 128 121 114 110 104 95 84 78 71 66 66 65 58 54 71 69 61 81 88 76 58 36 38 49 45 40 50 61 67 68 50 55
175 178 179 173 170 166 161 157 154 148 142 134 127 122 118 111 87 75 75 70 65 70 58 48 40 42 75 72 101 99 84 23 36 34 67 57 57 59 64 64 69 71 51
180 180 182 178 174 170 167 165 162 156 150 143 135 127 117 99 89 77 73 66 63 70 54 42 27 6 7 82 112 104 108 57 341 11 69 63 60 62 62 66 62 55 41
178 179 180 179 177 176 172 169 168 166 162 159 147 137 120 125 101 94 72 75 73 59 73 78 40 16 12 111 141 144 92 31 18 41 51 60 58 62 67 59 55 41 37
177 179 182 180 173 185 178 176 175 176 173 161 152 145 145 131 115 125 163 77 159 203 201 142 137 62 341 54 156 133 91 59 55 53 57 45 44 64 63 61 57 47 32
183 181 190 182 181 185 182 184 179 180 171 165 161 152 153 142 157 173 193 66 25 10 204 206 228 256 337 121 134 112 73 75 53 52 50 43 40 40 57 60 54 55 48
185 184 192 188 183 190 189 189 185 177 173 165 163 162 160 159 171 180 112 16 12 37 180 166 168 229 117 115 119 100 69 74 59 54 39 54 39 29 28 37 56 60 56
191 188 194 189 193 195 191 192 191 181 179 172 174 174 177 189 184 178 117 21 31 138 158 157 175 147 142 136 116 100 96 70 47 48 70 43 29 25 22 14 8 7 11
194 193 195 193 192 195 192 194 195 188 183 185 187 183 186 205 223 168 52 342 108 153 153 179 162 138 125 123 115 121 118 97 84 63 38 30 23 18 11 7 3 1 2
200 196 197 197 195 195 196 196 195 189 190 197 196 194 201 210 223 232 233 255 183 170 171 203 158 154 153 148 132 124 107 110 108 66 25 17 15 7 6 6 2 2 356
203 203 200 198 197 197 196 199 195 196 198 208 200 200 207 216 230 233 232 238 207 196 199 206 196 167 169 154 134 116 115 126 121 43 23 14 6 1 1 3 0 360 357
206 206 204 201 199 199 199 198 199 199 204 210 208 208 213 218 220 225 223 238 228 214 220 210 208 199 182 172 165 154 154 163 194 13 16 9 359 357 352 354 359 358 354
205 207 208 207 203 204 205 206 208 208 213 218 215 214 216 216 225 219 229 237 231 226 229 217 211 191 194 199 200 203 206 234 232 299 320 345 348 348 352 347 351 351 351
207 208 209 209 207 208 208 209 209 214 222 219 216 217 219 222 229 233 235 233 231 231 229 228 224 214 212 213 209 205 211 228 216 247 294 306 327 346 343 338 345 346 350
209 210 211 212 210 211 210 211 216 219 220 224 224 222 223 225 229 233 239 238 237 230 225 221 226 232 229 218 215 218 232 243 229 250 272 295 326 336 336 338 342 341 346
206 208 212 215 214 214 213 217 220 224 228 230 224 222 223 226 231 228 237 241 235 228 228 222 224 229 228 216 214 219 220 231 243 249 271 292 312 326 325 333 338 339 343
208 210 212 216 216 217 217 220 222 227 226 225 223 224 225 224 229 234 238 236 231 226 227 222 224 227 224 216 215 220 227 241 240 244 252 278 299 314 320 328 334 339 341
Wind_Speed_850mb
33 38 39 37 39 40 39 38 36 32 25 19 18 21 27 36 39 39 42 39 39 39 38 38 36 35 34 33 34 35 37 39 40 38 39 41 36 33 32 31 31 31 31
47 43 42 38 40 33 31 29 25 21 18 17 22 29 33 35 36 37 41 38 37 36 35 35 34 34 33 32 33 35 37 36 36 33 36 30 29 27 28 28 30 29 27
50 47 42 38 35 30 26 22 20 20 21 26 31 36 40 41 42 36 32 34 34 35 32 35 33 31 31 31 34 37 37 35 37 32 22 18 21 29 24 25 27 26 24
53 47 44 39 33 27 22 21 22 25 28 32 37 33 33 38 31 24 26 29 29 29 30 28 29 30 30 31 34 36 34 33 29 28 25 19 14 25 23 24 25 25 25
57 48 43 37 31 25 21 25 29 30 31 33 34 37 36 27 22 21 22 23 24 25 23 27 24 27 31 32 32 34 34 29 26 24 24 28 19 21 22 22 22 22 24
56 47 41 35 30 25 25 29 29 32 34 34 34 31 29 24 21 20 20 20 21 22 23 25 26 30 34 36 36 31 29 24 21 19 21 30 29 28 22 20 21 24 25
51 46 38 36 31 28 28 30 31 33 34 33 31 28 25 22 20 19 19 20 23 25 26 27 28 30 33 33 29 28 24 17 16 20 25 32 34 31 30 27 24 25 22
45 45 41 36 30 29 30 29 31 31 31 30 27 25 22 21 19 20 23 25 26 26 25 25 26 26 26 26 22 24 22 20 17 23 29 36 35 35 30 28 28 24 18
43 46 43 37 32 30 31 31 30 29 27 26 24 22 20 20 22 23 25 25 25 25 24 23 21 20 17 18 18 21 16 15 17 21 26 34 34 32 30 28 25 18 20
37 44 44 39 34 35 34 29 30 28 26 23 21 21 23 26 25 23 23 23 23 23 24 22 17 15 14 15 16 13 14 15 17 17 26 32 29 28 27 26 25 23 28
42 42 42 39 38 38 35 31 28 25 22 21 20 22 25 26 26 24 24 24 24 24 25 21 18 14 14 8 15 14 10 11 12 14 24 26 31 36 30 25 23 23 22
53 47 44 41 42 40 36 32 28 25 22 22 23 24 24 23 22 24 22 21 23 18 18 15 14 13 13 8 9 5 8 7 7 7 17 19 21 27 29 28 25 21 20
55 49 46 42 40 43 40 34 30 26 24 24 26 25 24 19 21 15 11 15 13 11 11 6 6 6 10 5 8 8 9 6 8 12 15 17 19 31 25 27 25 22 25
59 53 44 43 40 36 35 34 31 28 27 27 27 27 25 20 18 12 2 2 0 4 6 5 4 5 7 1 7 8 6 9 10 12 13 15 19 31 31 28 22 21 19
64 58 50 49 42 42 37 35 31 29 27 27 30 31 24 19 16 12 7 1 6 4 5 8 9 4 6 10 13 7 6 10 11 11 12 12 15 17 19 25 24 23 23
67 63 56 55 51 43 39 35 31 30 32 32 33 28 24 18 14 9 4 8 11 4 4 5 3 5 3 10 12 9 8 10 9 10 12 11 14 19 17 16 20 24 20
64 67 60 58 59 49 42 37 32 32 36 34 32 29 25 17 15 9 1 5 5 5 8 9 7 11 11 10 11 9 8 7 8 11 11 11 16 16 17 19 20 23 20
64 66 61 59 58 51 46 42 37 38 37 36 31 26 22 16 9 2 0 2 3 9 10 10 10 15 10 11 10 9 7 8 6 7 10 11 14 18 21 23 23 21 20
67 65 65 63 60 53 48 42 40 44 41 39 35 29 23 19 14 8 4 4 5 8 10 9 13 16 13 9 7 8 6 7 8 6 6 10 14 20 22 19 19 19 17
68 65 64 65 61 56 52 44 45 45 42 43 35 30 25 22 17 12 9 10 8 9 12 15 8 17 14 10 9 4 4 3 7 6 4 11 17 20 21 20 18 18 18
69 70 69 69 67 64 61 57 56 55 54 47 37 30 25 21 15 16 13 13 10 11 14 16 11 11 16 13 10 10 6 2 2 7 5 9 16 20 22 21 22 22 19
76 75 75 72 71 73 67 63 59 56 55 43 39 35 30 26 22 17 16 14 15 16 18 18 16 18 17 16 12 10 7 8 9 6 6 9 14 19 22 22 23 24 24
83 82 81 77 75 76 72 66 61 59 55 52 50 44 37 33 27 22 20 18 18 19 20 20 19 18 16 20 22 12 9 10 13 9 8 10 13 20 21 22 24 25 24
91 86 80 77 77 76 75 74 73 70 68 59 51 44 43 38 32 27 25 22 21 22 24 24 22 21 19 22 27 30 20 12 8 6 8 13 14 20 23 24 25 27 24
91 90 86 82 77 78 78 79 73 73 64 53 51 50 48 44 39 32 29 27 26 26 27 25 24 25 23 24 28 27 21 18 15 13 10 11 15 18 22 26 25 24 27
94 92 90 87 80 79 80 80 74 72 66 62 58 56 52 46 38 36 34 33 32 30 29 26 25 25 24 26 26 22 17 13 10 10 9 11 12 15 20 22 25 25 26
Wind_Direction_850mb
163 153 145 137 131 119 117 115 116 118 114 104 84 79 88 89 93 90 83 75 73 73 71 70 70 70 70 69 69 69 71 67 61 58 55 48 39 51 53 49 45 45 37
156 150 148 148 139 130 123 121 120 119 111 97 89 90 90 90 89 85 78 70 72 72 71 69 67 66 67 68 69 72 77 73 63 52 53 47 35 41 47 44 42 41 37
156 148 149 144 140 134 128 126 127 124 116 104 97 93 94 87 81 83 68 67 71 70 66 65 63 60 64 69 73 76 74 64 59 66 53 34 33 41 44 42 40 38 38
159 151 147 143 141 135 132 125 122 119 118 118 111 103 91 86 93 86 69 68 70 71 68 68 63 58 62 74 83 85 74 65 56 45 43 39 36 33 35 35 33 35 40
160 152 151 149 146 143 137 125 120 118 118 120 117 108 107 114 98 84 75 72 70 72 71 72 69 59 69 77 91 86 74 67 62 52 31 37 35 30 23 24 29 37 44
161 155 152 152 146 144 134 124 119 119 115 115 117 114 117 108 95 84 76 72 70 69 67 71 73 73 75 83 96 99 89 83 63 48 40 38 43 34 34 38 42 49 75
158 163 158 153 149 144 136 128 123 121 119 116 113 111 108 101 91 81 78 77 73 72 74 77 78 77 81 87 99 101 91 80 70 53 46 42 44 41 43 47 55 83 84
160 164 161 156 152 149 143 135 130 128 124 117 112 109 105 99 94 91 84 78 76 75 74 73 76 79 84 97 97 89 77 71 64 52 49 50 41 45 51 61 77 82 68
176 170 165 162 159 154 148 143 140 134 130 123 116 112 107 104 101 91 83 77 73 70 67 66 68 74 78 83 89 78 93 68 46 44 44 41 33 44 58 69 77 72 45
184 181 174 170 166 161 156 148 142 141 134 128 121 114 110 104 95 84 78 71 66 66 65 58 54 71 69 61 81 88 76 58 36 38 49 45 40 50 61 67 68 50 55
175 178 179 173 170 166 161 157 154 148 142 134 127 122 118 111 87 75 75 70 65 70 58 48 40 42 75 72 101 99 84 23 36 34 67 57 57 59 64 64 69 71 51
180 180 182 178 174 170 167 165 162 156 150 143 135 127 117 99 89 77 73 66 63 70 54 42 27 6 7 82 112 104 108 57 341 11 69 63 60 62 62 66 62 55 41
178 179 180 179 177 176 172 169 168 166 162 159 147 137 120 125 101 94 72 75 73 59 73 78 40 16 12 111 141 144 92 31 18 41 51 60 58 62 67 59 55 41 37
177 179 182 180 173 185 178 176 175 176 173 161 152 145 145 131 115 125 163 77 159 203 201 142 137 62 341 54 156 133 91 59 55 53 57 45 44 64 63 61 57 47 32
183 181 190 182 181 185 182 184 179 180 171 165 161 152 153 142 157 173 193 66 25 10 204 206 228 256 337 121 134 112 73 75 53 52 50 43 40 40 57 60 54 55 48
185 184 192 188 183 190 189 189 185 177 173 165 163 162 160 159 171 180 112 16 12 37 180 166 168 229 117 115 119 100 69 74 59 54 39 54 39 29 28 37 56 60 56
191 188 194 189 193 195 191 192 191 181 179 172 174 174 177 189 184 178 117 21 31 138 158 157 175 147 142 136 116 100 96 70 47 48 70 43 29 25 22 14 8 7 11
194 193 195 193 192 195 192 194 195 188 183 185 187 183 186 205 223 168 52 342 108 153 153 179 162 138 125 123 115 121 118 97 84 63 38 30 23 18 11 7 3 1 2
200 196 197 197 195 195 196 196 195 189 190 197 196 194 201 210 223 232 233 255 183 170 171 203 158 154 153 148 132 124 107 110 108 66 25 17 15 7 6 6 2 2 356
203 203 200 198 197 197 196 199 195 196 198 208 200 200 207 216 230 233 232 238 207 196 199 206 196 167 169 154 134 116 115 126 121 43 23 14 6 1 1 3 0 360 357
206 206 204 201 199 199 199 198 199 199 204 210 208 208 213 218 220 225 223 238 228 214 220 210 208 199 182 172 165 154 154 163 194 13 16 9 359 357 352 354 359 358 354
205 207 208 207 203 204 205 206 208 208 213 218 215 214 216 216 225 219 229 237 231 226 229 217 211 191 194 199 200 203 206 234 232 299 320 345 348 348 352 347 351 351 351
207 208 209 209 207 208 208 209 209 214 222 219 216 217 219 222 229 233 235 233 231 231 229 228 224 214 212 213 209 205 211 228 216 247 294 306 327 346 343 338 345 346 350
209 210 211 212 210 211 210 211 216 219 220 224 224 222 223 225 229 233 239 238 237 230 225 221 226 232 229 218 215 218 232 243 229 250 272 295 326 336 336 338 342 341 346
206 208 212 215 214 214 213 217 220 224 228 230 224 222 223 226 231 228 237 241 235 228 228 222 224 229 228 216 214 219 220 231 243 249 271 292 312 326 325 333 338 339 343
208 210 212 216 216 217 217 220 222 227 226 225 223 224 225 224 229 234 238 236 231 226 227 222 224 227 224 216 215 220 227 241 240 244 252 278 299 314 320 328 334 339 341